Regional Weather Roundup
Issued by NWS

Home | Current Version | Previous Version | Graphics & Text | Print | Product List | Glossary On
Versions: 1 2 3 4 5 6 7 8 9 10 11 12 13 14 15 16 17 18 19 20 21 22 23 24 25 26 27 28 29 30 31 32 33 34 35 36 37 38 39 40 41 42 43 44 45 46 47 48 49 50
000
ASUS43 KOAX 231902
RWRNE

WEATHER ROUNDUP FOR NEBRASKA
NATIONAL WEATHER SERVICE OMAHA NE
200 PM CDT SAT MAY 23 2015

NOTES: SATELLITE DATA IS BEING USED TO AUGMENT CLOUD COVER ABOVE
       12000 FEET.
       "FAIR" INDICATES FEW OR NO CLOUDS BELOW 12,000 FEET WITH NO
       SIGNIFICANT WEATHER AND/OR OBSTRUCTIONS TO VISIBILITY.

  * THESE STATIONS DO NOT REPORT WEATHER SUCH AS RAIN...SNOW OR FOG.

NEZ001>004-019>022-054>056-232000-
NEBRASKA PANHANDLE

CITY           SKY/WX    TMP DP  RH WIND       PRES   REMARKS
SCOTTSBLUFF    CLOUDY    58  52  80 E10       29.98F
ALLIANCE       CLOUDY    56  52  86 SE14      30.00F
CHADRON        CLOUDY    58  54  86 E7        30.01F
KIMBALL          N/A    N/A N/A N/A MISG        N/A
SIDNEY         CLOUDY    55  53  93 E17       29.99F
$$

NEZ057>060-069>072-079>082-232000-
SOUTHWEST NEBRASKA

CITY           SKY/WX    TMP DP  RH WIND       PRES   REMARKS
NORTH PLATTE   CLOUDY    55  53  93 SE6       30.06S
IMPERIAL       CLOUDY    61  54  77 SE12      30.01S
LEXINGTON      LGT RAIN  57  56  97 E14       30.04F
MCCOOK         CLOUDY    62  54  74 VRB3      30.02R
OGALLALA       CLOUDY    55  55  97 SE16      30.02F FOG
$$

NEZ005>010-023>029-035>040-094-232000-
NORTH CENTRAL NEBRASKA

CITY           SKY/WX    TMP DP  RH WIND       PRES   REMARKS
VALENTINE      CLOUDY    57  53  86 SE14      30.08S
AINSWORTH      CLOUDY    57  54  89 SE13      30.09F
BROKEN BOW     CLOUDY    55  53  93 SE12      30.08F FOG
O`NEILL        CLOUDY    59  54  84 SE10      30.12F
ORD            CLOUDY    56  52  86 SE6       30.10F
$$

NEZ041-046>049-061>064-073>077-083>087-232000-
SOUTH CENTRAL NEBRASKA

CITY           SKY/WX    TMP DP  RH WIND       PRES   REMARKS
GRAND ISLAND   CLOUDY    58  55  90 SE9       30.12F
AURORA         CLOUDY    59  57  95 S7        30.13F
HASTINGS       CLOUDY    59  56  89 SE9       30.11F
HEBRON         LGT RAIN  60  57  89 S7        30.13F
HOLDREGE       LGT RAIN  57  54  89 SE14      30.06F
KEARNEY *      CLOUDY    57  54  88 SE12      30.09F
$$

NEZ011>018-030>034-042>045-232000-
NORTHEAST NEBRASKA

CITY           SKY/WX    TMP DP  RH WIND       PRES   REMARKS
NORFOLK        CLOUDY    59  54  83 SE12      30.13F
ALBION         CLOUDY    56  53  87 S9        30.13S
BLAIR          CLOUDY    60  54  80 S10       30.15F
COLUMBUS *     CLOUDY    59  50  72 SE10      30.16F
FREMONT        CLOUDY    61  55  80 SE12      30.15F
TEKAMAH        CLOUDY    64  55  72 SE12      30.14F
WAYNE          CLOUDY    60  55  83 SE12      30.14F
$$

NEZ050>053-065>068-078-088>093-232000-
SOUTHEAST NEBRASKA

CITY           SKY/WX    TMP DP  RH WIND       PRES   REMARKS
LINCOLN        CLOUDY    62  55  77 SE9       30.14F
OMAHA EPPLEY   CLOUDY    63  55  75 SE14      30.15F
BEATRICE       CLOUDY    62  57  83 S9        30.13S
FALLS CITY     CLOUDY    66  58  75 SE10      30.14F
NEBRASKA CITY  CLOUDY    65  56  74 SE10      30.14F
PLATTSMOUTH    CLOUDY    63  56  79 SE9       30.15F
$$

NEZ044-045-051>053-067-232000-
OMAHA AREA

CITY           SKY/WX    TMP DP  RH WIND       PRES   REMARKS
OMAHA EPPLEY   CLOUDY    63  55  75 SE14      30.15F
BLAIR          CLOUDY    60  54  80 S10       30.15F
FREMONT        CLOUDY    61  55  80 SE12      30.15F
MILLARD        CLOUDY    62  56  83 S7        30.15S
OFFUTT AFB     CLOUDY    63  56  79 S7        30.14F
PLATTSMOUTH    CLOUDY    63  56  79 SE9       30.15F
WAHOO          CLOUDY    60  56  85 S14       30.15F
$$


USA.gov is the U.S. government's official web portal to all federal, state and local government web resources and services.